Epoch 2004 Feb. 5.0 TT = JDT 2453040.5 T 2004 Feb. 13.6369 TT MPCM q 3.244907 (2000.0) P Q n 0.0193773 Peri. 103.8672 -0.3756943 +0.8469041 a 13.728012 Node 137.0692 -0.9067409 -0.4198264 e 0.763629 Incl. 33.5378 +0.1915066 -0.3263424 P 50.9 From 145 observations 2003 Mar. 9-2004 Feb. 21, mean residual 0".6.
m1 = 10.0 + 5 logΔ + 10.0 log r